Year,Month,Day,Hour,Minute,Value (Times are PST for insolation in W/m^2)
2022,04,30,00,00,0.00
2022,04,30,00,01,0.00
2022,04,30,00,02,0.00
2022,04,30,00,03,0.00
2022,04,30,00,04,0.00
2022,04,30,00,05,0.00
2022,04,30,00,06,0.00
2022,04,30,00,07,0.00
2022,04,30,00,08,0.00
2022,04,30,00,09,0.00
2022,04,30,00,10,0.00
2022,04,30,00,11,0.00
2022,04,30,00,12,0.00
2022,04,30,00,13,0.00
2022,04,30,00,14,0.00
2022,04,30,00,15,0.00
2022,04,30,00,16,0.00
2022,04,30,00,17,0.00
2022,04,30,00,18,0.00
2022,04,30,00,19,0.00
2022,04,30,00,20,0.00
2022,04,30,00,21,0.00
2022,04,30,00,22,0.00
2022,04,30,00,23,0.00
2022,04,30,00,24,0.00
2022,04,30,00,25,0.00
2022,04,30,00,26,0.00
2022,04,30,00,27,0.00
2022,04,30,00,28,0.00
2022,04,30,00,29,0.00
2022,04,30,00,30,0.00
2022,04,30,00,31,0.00
2022,04,30,00,32,0.00
2022,04,30,00,33,0.00
2022,04,30,00,34,0.00
2022,04,30,00,35,0.00
2022,04,30,00,36,0.00
2022,04,30,00,37,0.00
2022,04,30,00,38,0.00
2022,04,30,00,39,0.00
2022,04,30,00,40,0.00
2022,04,30,00,41,0.00
2022,04,30,00,42,0.00
2022,04,30,00,43,0.00
2022,04,30,00,44,0.00
2022,04,30,00,45,0.00
2022,04,30,00,46,0.00
2022,04,30,00,47,0.00
2022,04,30,00,48,0.00
2022,04,30,00,49,0.00
2022,04,30,00,50,0.00
2022,04,30,00,51,0.00
2022,04,30,00,52,0.00
2022,04,30,00,53,0.00
2022,04,30,00,54,0.00
2022,04,30,00,55,0.00
2022,04,30,00,56,0.00
2022,04,30,00,57,0.00
2022,04,30,00,58,0.00
2022,04,30,00,59,0.00
2022,04,30,01,00,0.00
2022,04,30,01,01,0.00
2022,04,30,01,02,0.00
2022,04,30,01,03,0.00
2022,04,30,01,04,0.00
2022,04,30,01,05,0.00
2022,04,30,01,06,0.00
2022,04,30,01,07,0.00
2022,04,30,01,08,0.00
2022,04,30,01,09,0.00
2022,04,30,01,10,0.00
2022,04,30,01,11,0.00
2022,04,30,01,12,0.00
2022,04,30,01,13,0.00
2022,04,30,01,14,0.00
2022,04,30,01,15,0.00
2022,04,30,01,16,0.00
2022,04,30,01,17,0.00
2022,04,30,01,18,0.00
2022,04,30,01,19,0.00
2022,04,30,01,20,0.00
2022,04,30,01,21,0.00
2022,04,30,01,22,0.00
2022,04,30,01,23,0.00
2022,04,30,01,24,0.00
2022,04,30,01,25,0.00
2022,04,30,01,26,0.00
2022,04,30,01,27,0.00
2022,04,30,01,28,0.00
2022,04,30,01,29,0.00
2022,04,30,01,30,0.00
2022,04,30,01,31,0.00
2022,04,30,01,32,0.00
2022,04,30,01,33,0.00
2022,04,30,01,34,0.00
2022,04,30,01,35,0.00
2022,04,30,01,36,0.00
2022,04,30,01,37,0.00
2022,04,30,01,38,0.00
2022,04,30,01,39,0.00
2022,04,30,01,40,0.00
2022,04,30,01,41,0.00
2022,04,30,01,42,0.00
2022,04,30,01,43,0.00
2022,04,30,01,44,0.00
2022,04,30,01,45,0.00
2022,04,30,01,46,0.00
2022,04,30,01,47,0.00
2022,04,30,01,48,0.00
2022,04,30,01,49,0.00
2022,04,30,01,50,0.00
2022,04,30,01,51,0.00
2022,04,30,01,52,0.00
2022,04,30,01,53,0.00
2022,04,30,01,54,0.00
2022,04,30,01,55,0.00
2022,04,30,01,56,0.00
2022,04,30,01,57,0.00
2022,04,30,01,58,0.00
2022,04,30,01,59,0.00
2022,04,30,02,00,0.00
2022,04,30,02,01,0.00
2022,04,30,02,02,0.00
2022,04,30,02,03,0.00
2022,04,30,02,04,0.00
2022,04,30,02,05,0.00
2022,04,30,02,06,0.00
2022,04,30,02,07,0.00
2022,04,30,02,08,0.00
2022,04,30,02,09,0.00
2022,04,30,02,10,0.00
2022,04,30,02,11,0.00
2022,04,30,02,12,0.00
2022,04,30,02,13,0.00
2022,04,30,02,14,0.00
2022,04,30,02,15,0.00
2022,04,30,02,16,0.00
2022,04,30,02,17,0.00
2022,04,30,02,18,0.00
2022,04,30,02,19,0.00
2022,04,30,02,20,0.00
2022,04,30,02,21,0.00
2022,04,30,02,22,0.00
2022,04,30,02,23,0.00
2022,04,30,02,24,0.00
2022,04,30,02,25,0.00
2022,04,30,02,26,0.00
2022,04,30,02,27,0.00
2022,04,30,02,28,0.00
2022,04,30,02,29,0.00
2022,04,30,02,30,0.00
2022,04,30,02,31,0.00
2022,04,30,02,32,0.00
2022,04,30,02,33,0.00
2022,04,30,02,34,0.00
2022,04,30,02,35,0.00
2022,04,30,02,36,0.00
2022,04,30,02,37,0.00
2022,04,30,02,38,0.00
2022,04,30,02,39,0.00
2022,04,30,02,40,0.00
2022,04,30,02,41,0.00
2022,04,30,02,42,0.00
2022,04,30,02,43,0.00
2022,04,30,02,44,0.00
2022,04,30,02,45,0.00
2022,04,30,02,46,0.00
2022,04,30,02,47,0.00
2022,04,30,02,48,0.00
2022,04,30,02,49,0.00
2022,04,30,02,50,0.00
2022,04,30,02,51,0.00
2022,04,30,02,52,0.00
2022,04,30,02,53,0.00
2022,04,30,02,54,0.00
2022,04,30,02,55,0.00
2022,04,30,02,56,0.00
2022,04,30,02,57,0.00
2022,04,30,02,58,0.00
2022,04,30,02,59,0.00
2022,04,30,03,00,0.00
2022,04,30,03,01,0.00
2022,04,30,03,02,0.00
2022,04,30,03,03,0.00
2022,04,30,03,04,0.00
2022,04,30,03,05,0.00
2022,04,30,03,06,0.00
2022,04,30,03,07,0.00
2022,04,30,03,08,0.00
2022,04,30,03,09,0.00
2022,04,30,03,10,0.00
2022,04,30,03,11,0.00
2022,04,30,03,12,0.00
2022,04,30,03,13,0.00
2022,04,30,03,14,0.00
2022,04,30,03,15,0.00
2022,04,30,03,16,0.00
2022,04,30,03,17,0.00
2022,04,30,03,18,0.00
2022,04,30,03,19,0.00
2022,04,30,03,20,0.00
2022,04,30,03,21,0.00
2022,04,30,03,22,0.00
2022,04,30,03,23,0.00
2022,04,30,03,24,0.00
2022,04,30,03,25,0.00
2022,04,30,03,26,0.00
2022,04,30,03,27,0.00
2022,04,30,03,28,0.00
2022,04,30,03,29,0.00
2022,04,30,03,30,0.00
2022,04,30,03,31,0.00
2022,04,30,03,32,0.00
2022,04,30,03,33,0.00
2022,04,30,03,34,0.00
2022,04,30,03,35,0.00
2022,04,30,03,36,0.00
2022,04,30,03,37,0.00
2022,04,30,03,38,0.00
2022,04,30,03,39,0.00
2022,04,30,03,40,0.00
2022,04,30,03,41,0.00
2022,04,30,03,42,0.00
2022,04,30,03,43,0.00
2022,04,30,03,44,0.00
2022,04,30,03,45,0.00
2022,04,30,03,46,0.00
2022,04,30,03,47,0.00
2022,04,30,03,48,0.00
2022,04,30,03,49,0.00
2022,04,30,03,50,0.00
2022,04,30,03,51,0.00
2022,04,30,03,52,0.00
2022,04,30,03,53,0.00
2022,04,30,03,54,0.00
2022,04,30,03,55,0.00
2022,04,30,03,56,0.00
2022,04,30,03,57,0.00
2022,04,30,03,58,0.00
2022,04,30,03,59,0.00
2022,04,30,04,00,0.00
2022,04,30,04,01,0.00
2022,04,30,04,02,0.00
2022,04,30,04,03,0.00
2022,04,30,04,04,0.00
2022,04,30,04,05,0.00
2022,04,30,04,06,0.00
2022,04,30,04,07,0.00
2022,04,30,04,08,0.00
2022,04,30,04,09,0.00
2022,04,30,04,10,0.00
2022,04,30,04,11,0.00
2022,04,30,04,12,0.00
2022,04,30,04,13,0.00
2022,04,30,04,14,0.00
2022,04,30,04,15,0.00
2022,04,30,04,16,0.00
2022,04,30,04,17,0.00
2022,04,30,04,18,0.00
2022,04,30,04,19,0.00
2022,04,30,04,20,0.00
2022,04,30,04,21,0.00
2022,04,30,04,22,0.00
2022,04,30,04,23,0.00
2022,04,30,04,24,0.00
2022,04,30,04,25,0.00
2022,04,30,04,26,0.00
2022,04,30,04,27,0.00
2022,04,30,04,28,0.00
2022,04,30,04,29,0.00
2022,04,30,04,30,0.00
2022,04,30,04,31,0.00
2022,04,30,04,32,0.00
2022,04,30,04,33,0.00
2022,04,30,04,34,0.00
2022,04,30,04,35,0.00
2022,04,30,04,36,0.00
2022,04,30,04,37,0.00
2022,04,30,04,38,0.00
2022,04,30,04,39,0.00
2022,04,30,04,40,0.00
2022,04,30,04,41,0.00
2022,04,30,04,42,0.00
2022,04,30,04,43,0.00
2022,04,30,04,44,0.00
2022,04,30,04,45,0.00
2022,04,30,04,46,0.00
2022,04,30,04,47,0.00
2022,04,30,04,48,0.00
2022,04,30,04,49,0.00
2022,04,30,04,50,0.00
2022,04,30,04,51,0.00
2022,04,30,04,52,0.00
2022,04,30,04,53,0.00
2022,04,30,04,54,0.00
2022,04,30,04,55,0.00
2022,04,30,04,56,0.00
2022,04,30,04,57,0.00
2022,04,30,04,58,0.00
2022,04,30,04,59,0.00
2022,04,30,05,00,0.00
2022,04,30,05,01,0.00
2022,04,30,05,02,0.00
2022,04,30,05,03,0.00
2022,04,30,05,04,0.00
2022,04,30,05,05,0.00
2022,04,30,05,06,0.00
2022,04,30,05,07,0.00
2022,04,30,05,08,0.00
2022,04,30,05,09,0.00
2022,04,30,05,10,0.00
2022,04,30,05,11,0.00
2022,04,30,05,12,0.00
2022,04,30,05,13,0.00
2022,04,30,05,14,0.00
2022,04,30,05,15,0.00
2022,04,30,05,16,0.00
2022,04,30,05,17,0.00
2022,04,30,05,18,0.00
2022,04,30,05,19,0.00
2022,04,30,05,20,0.00
2022,04,30,05,21,0.00
2022,04,30,05,22,0.00
2022,04,30,05,23,0.00
2022,04,30,05,24,0.00
2022,04,30,05,25,0.00
2022,04,30,05,26,0.00
2022,04,30,05,27,0.00
2022,04,30,05,28,0.00
2022,04,30,05,29,0.00
2022,04,30,05,30,0.00
2022,04,30,05,31,0.00
2022,04,30,05,32,0.00
2022,04,30,05,33,0.00
2022,04,30,05,34,0.00
2022,04,30,05,35,0.00
2022,04,30,05,36,0.00
2022,04,30,05,37,0.00
2022,04,30,05,38,0.00
2022,04,30,05,39,0.00
2022,04,30,05,40,0.00
2022,04,30,05,41,0.00
2022,04,30,05,42,0.00
2022,04,30,05,43,0.00
2022,04,30,05,44,0.00
2022,04,30,05,45,0.00
2022,04,30,05,46,0.00
2022,04,30,05,47,0.00
2022,04,30,05,48,0.00
2022,04,30,05,49,0.00
2022,04,30,05,50,0.00
2022,04,30,05,51,0.00
2022,04,30,05,52,0.00
2022,04,30,05,53,0.00
2022,04,30,05,54,0.00
2022,04,30,05,55,0.00
2022,04,30,05,56,0.00
2022,04,30,05,57,0.00
2022,04,30,05,58,0.00
2022,04,30,05,59,0.00
2022,04,30,06,00,0.00
2022,04,30,06,01,2.70
2022,04,30,06,02,5.00
2022,04,30,06,03,5.00
2022,04,30,06,04,5.00
2022,04,30,06,05,5.00
2022,04,30,06,06,5.00
2022,04,30,06,07,5.00
2022,04,30,06,08,6.40
2022,04,30,06,09,7.00
2022,04,30,06,10,7.00
2022,04,30,06,11,7.00
2022,04,30,06,12,7.00
2022,04,30,06,13,7.00
2022,04,30,06,14,7.00
2022,04,30,06,15,8.80
2022,04,30,06,16,9.00
2022,04,30,06,17,9.00
2022,04,30,06,18,9.00
2022,04,30,06,19,9.00
2022,04,30,06,20,9.00
2022,04,30,06,21,10.80
2022,04,30,06,22,11.00
2022,04,30,06,23,11.00
2022,04,30,06,24,11.00
2022,04,30,06,25,11.00
2022,04,30,06,26,11.00
2022,04,30,06,27,11.00
2022,04,30,06,28,11.00
2022,04,30,06,29,11.40
2022,04,30,06,30,12.00
2022,04,30,06,31,12.00
2022,04,30,06,32,12.00
2022,04,30,06,33,13.90
2022,04,30,06,34,14.00
2022,04,30,06,35,14.00
2022,04,30,06,36,15.00
2022,04,30,06,37,16.00
2022,04,30,06,38,16.00
2022,04,30,06,39,16.20
2022,04,30,06,40,18.00
2022,04,30,06,41,18.40
2022,04,30,06,42,19.00
2022,04,30,06,43,19.00
2022,04,30,06,44,20.70
2022,04,30,06,45,21.00
2022,04,30,06,46,21.00
2022,04,30,06,47,21.80
2022,04,30,06,48,23.00
2022,04,30,06,49,24.40
2022,04,30,06,50,25.00
2022,04,30,06,51,25.10
2022,04,30,06,52,26.00
2022,04,30,06,53,26.00
2022,04,30,06,54,26.00
2022,04,30,06,55,27.40
2022,04,30,06,56,28.00
2022,04,30,06,57,28.40
2022,04,30,06,58,30.00
2022,04,30,06,59,30.00
2022,04,30,07,00,31.20
2022,04,30,07,01,32.00
2022,04,30,07,02,32.90
2022,04,30,07,03,33.00
2022,04,30,07,04,33.00
2022,04,30,07,05,34.00
2022,04,30,07,06,35.00
2022,04,30,07,07,35.00
2022,04,30,07,08,36.80
2022,04,30,07,09,37.00
2022,04,30,07,10,37.70
2022,04,30,07,11,39.00
2022,04,30,07,12,39.70
2022,04,30,07,13,40.00
2022,04,30,07,14,41.90
2022,04,30,07,15,42.00
2022,04,30,07,16,42.80
2022,04,30,07,17,44.00
2022,04,30,07,18,44.00
2022,04,30,07,19,45.60
2022,04,30,07,20,44.10
2022,04,30,07,21,44.00
2022,04,30,07,22,44.00
2022,04,30,07,23,44.00
2022,04,30,07,24,44.00
2022,04,30,07,25,44.00
2022,04,30,07,26,44.00
2022,04,30,07,27,44.00
2022,04,30,07,28,44.00
2022,04,30,07,29,44.00
2022,04,30,07,30,45.40
2022,04,30,07,31,46.90
2022,04,30,07,32,47.30
2022,04,30,07,33,49.60
2022,04,30,07,34,51.00
2022,04,30,07,35,51.00
2022,04,30,07,36,51.00
2022,04,30,07,37,51.00
2022,04,30,07,38,50.70
2022,04,30,07,39,49.00
2022,04,30,07,40,50.00
2022,04,30,07,41,51.00
2022,04,30,07,42,53.30
2022,04,30,07,43,55.80
2022,04,30,07,44,56.40
2022,04,30,07,45,57.30
2022,04,30,07,46,57.00
2022,04,30,07,47,59.30
2022,04,30,07,48,60.00
2022,04,30,07,49,61.90
2022,04,30,07,50,63.40
2022,04,30,07,51,66.30
2022,04,30,07,52,69.50
2022,04,30,07,53,71.30
2022,04,30,07,54,73.60
2022,04,30,07,55,73.90
2022,04,30,07,56,72.00
2022,04,30,07,57,72.00
2022,04,30,07,58,72.00
2022,04,30,07,59,73.30
2022,04,30,08,00,75.60
2022,04,30,08,01,77.00
2022,04,30,08,02,77.50
2022,04,30,08,03,79.70
2022,04,30,08,04,82.60
2022,04,30,08,05,84.00
2022,04,30,08,06,85.70
2022,04,30,08,07,88.30
2022,04,30,08,08,90.30
2022,04,30,08,09,91.80
2022,04,30,08,10,94.10
2022,04,30,08,11,96.40
2022,04,30,08,12,97.90
2022,04,30,08,13,100.00
2022,04,30,08,14,100.00
2022,04,30,08,15,100.00
2022,04,30,08,16,100.00
2022,04,30,08,17,100.00
2022,04,30,08,18,101.70
2022,04,30,08,19,102.40
2022,04,30,08,20,104.00
2022,04,30,08,21,103.10
2022,04,30,08,22,102.00
2022,04,30,08,23,102.00
2022,04,30,08,24,103.80
2022,04,30,08,25,101.60
2022,04,30,08,26,99.00
2022,04,30,08,27,96.00
2022,04,30,08,28,93.70
2022,04,30,08,29,91.40
2022,04,30,08,30,91.00
2022,04,30,08,31,90.00
2022,04,30,08,32,89.30
2022,04,30,08,33,89.00
2022,04,30,08,34,90.60
2022,04,30,08,35,94.20
2022,04,30,08,36,98.10
2022,04,30,08,37,102.70
2022,04,30,08,38,106.50
2022,04,30,08,39,111.10
2022,04,30,08,40,116.30
2022,04,30,08,41,123.70
2022,04,30,08,42,128.30
2022,04,30,08,43,132.00
2022,04,30,08,44,132.70
2022,04,30,08,45,133.00
2022,04,30,08,46,130.70
2022,04,30,08,47,128.40
2022,04,30,08,48,126.80
2022,04,30,08,49,124.50
2022,04,30,08,50,122.20
2022,04,30,08,51,119.30
2022,04,30,08,52,116.60
2022,04,30,08,53,116.00
2022,04,30,08,54,116.00
2022,04,30,08,55,116.60
2022,04,30,08,56,119.30
2022,04,30,08,57,122.20
2022,04,30,08,58,124.50
2022,04,30,08,59,138.30
2022,04,30,09,00,134.80
2022,04,30,09,01,154.00
2022,04,30,09,02,148.00
2022,04,30,09,03,130.90
2022,04,30,09,04,128.00
2022,04,30,09,05,125.20
2022,04,30,09,06,123.00
2022,04,30,09,07,123.70
2022,04,30,09,08,126.00
2022,04,30,09,09,128.90
2022,04,30,09,10,137.00
2022,04,30,09,11,148.70
2022,04,30,09,12,163.60
2022,04,30,09,13,170.70
2022,04,30,09,14,175.00
2022,04,30,09,15,177.90
2022,04,30,09,16,180.60
2022,04,30,09,17,188.00
2022,04,30,09,18,195.00
2022,04,30,09,19,194.20
2022,04,30,09,20,192.40
2022,04,30,09,21,192.00
2022,04,30,09,22,179.00
2022,04,30,09,23,168.30
2022,04,30,09,24,158.90
2022,04,30,09,25,155.40
2022,04,30,09,26,171.00
2022,04,30,09,27,163.30
2022,04,30,09,28,149.00
2022,04,30,09,29,149.60
2022,04,30,09,30,156.30
2022,04,30,09,31,161.20
2022,04,30,09,32,171.60
2022,04,30,09,33,165.30
2022,04,30,09,34,155.70
2022,04,30,09,35,148.60
2022,04,30,09,36,145.40
2022,04,30,09,37,144.90
2022,04,30,09,38,149.00
2022,04,30,09,39,156.20
2022,04,30,09,40,161.70
2022,04,30,09,41,165.70
2022,04,30,09,42,169.60
2022,04,30,09,43,171.00
2022,04,30,09,44,172.80
2022,04,30,09,45,175.60
2022,04,30,09,46,174.10
2022,04,30,09,47,171.40
2022,04,30,09,48,168.30
2022,04,30,09,49,165.10
2022,04,30,09,50,161.20
2022,04,30,09,51,158.40
2022,04,30,09,52,155.20
2022,04,30,09,53,155.00
2022,04,30,09,54,155.00
2022,04,30,09,55,154.00
2022,04,30,09,56,153.00
2022,04,30,09,57,154.60
2022,04,30,09,58,155.40
2022,04,30,09,59,161.10
2022,04,30,10,00,166.50
2022,04,30,10,01,171.60
2022,04,30,10,02,177.30
2022,04,30,10,03,182.30
2022,04,30,10,04,182.80
2022,04,30,10,05,180.20
2022,04,30,10,06,178.40
2022,04,30,10,07,179.00
2022,04,30,10,08,181.70
2022,04,30,10,09,179.60
2022,04,30,10,10,175.30
2022,04,30,10,11,170.00
2022,04,30,10,12,167.00
2022,04,30,10,13,169.20
2022,04,30,10,14,174.50
2022,04,30,10,15,180.30
2022,04,30,10,16,178.00
2022,04,30,10,17,169.30
2022,04,30,10,18,160.80
2022,04,30,10,19,158.00
2022,04,30,10,20,152.80
2022,04,30,10,21,153.10
2022,04,30,10,22,164.10
2022,04,30,10,23,179.00
2022,04,30,10,24,190.00
2022,04,30,10,25,198.00
2022,04,30,10,26,203.00
2022,04,30,10,27,204.00
2022,04,30,10,28,204.60
2022,04,30,10,29,209.00
2022,04,30,10,30,217.80
2022,04,30,10,31,240.60
2022,04,30,10,32,251.00
2022,04,30,10,33,281.30
2022,04,30,10,34,240.10
2022,04,30,10,35,231.80
2022,04,30,10,36,222.00
2022,04,30,10,37,227.00
2022,04,30,10,38,230.00
2022,04,30,10,39,225.90
2022,04,30,10,40,237.20
2022,04,30,10,41,260.80
2022,04,30,10,42,274.00
2022,04,30,10,43,281.30
2022,04,30,10,44,274.40
2022,04,30,10,45,283.40
2022,04,30,10,46,306.00
2022,04,30,10,47,326.80
2022,04,30,10,48,393.10
2022,04,30,10,49,360.10
2022,04,30,10,50,322.60
2022,04,30,10,51,290.60
2022,04,30,10,52,285.00
2022,04,30,10,53,289.40
2022,04,30,10,54,308.90
2022,04,30,10,55,354.50
2022,04,30,10,56,422.70
2022,04,30,10,57,416.30
2022,04,30,10,58,435.00
2022,04,30,10,59,434.00
2022,04,30,11,00,527.50
2022,04,30,11,01,540.70
2022,04,30,11,02,585.40
2022,04,30,11,03,532.60
2022,04,30,11,04,551.00
2022,04,30,11,05,536.40
2022,04,30,11,06,524.10
2022,04,30,11,07,554.20
2022,04,30,11,08,563.00
2022,04,30,11,09,438.00
2022,04,30,11,10,506.00
2022,04,30,11,11,642.00
2022,04,30,11,12,642.00
2022,04,30,11,13,342.60
2022,04,30,11,14,264.90
2022,04,30,11,15,284.60
2022,04,30,11,16,274.70
2022,04,30,11,17,276.00
2022,04,30,11,18,276.00
2022,04,30,11,19,276.00
2022,04,30,11,20,690.80
2022,04,30,11,21,701.00
2022,04,30,11,22,701.00
2022,04,30,11,23,711.00
2022,04,30,11,24,743.70
2022,04,30,11,25,691.60
2022,04,30,11,26,637.10
2022,04,30,11,27,318.00
2022,04,30,11,28,474.90
2022,04,30,11,29,701.40
2022,04,30,11,30,709.50
2022,04,30,11,31,646.70
2022,04,30,11,32,580.20
2022,04,30,11,33,263.50
2022,04,30,11,34,260.00
2022,04,30,11,35,265.00
2022,04,30,11,36,272.50
2022,04,30,11,37,321.70
2022,04,30,11,38,330.00
2022,04,30,11,39,302.10
2022,04,30,11,40,268.10
2022,04,30,11,41,311.00
2022,04,30,11,42,589.50
2022,04,30,11,43,687.00
2022,04,30,11,44,687.00
2022,04,30,11,45,687.00
2022,04,30,11,46,513.70
2022,04,30,11,47,294.00
2022,04,30,11,48,292.00
2022,04,30,11,49,294.10
2022,04,30,11,50,302.90
2022,04,30,11,51,333.40
2022,04,30,11,52,361.20
2022,04,30,11,53,383.00
2022,04,30,11,54,383.00
2022,04,30,11,55,803.40
2022,04,30,11,56,837.00
2022,04,30,11,57,819.20
2022,04,30,11,58,762.00
2022,04,30,11,59,746.20
2022,04,30,12,00,754.00
2022,04,30,12,01,745.90
2022,04,30,12,02,667.00
2022,04,30,12,03,744.00
2022,04,30,12,04,482.10
2022,04,30,12,05,235.60
2022,04,30,12,06,234.00
2022,04,30,12,07,238.00
2022,04,30,12,08,260.40
2022,04,30,12,09,230.00
2022,04,30,12,10,521.10
2022,04,30,12,11,750.50
2022,04,30,12,12,741.30
2022,04,30,12,13,726.40
2022,04,30,12,14,712.40
2022,04,30,12,15,706.80
2022,04,30,12,16,705.00
2022,04,30,12,17,705.00
2022,04,30,12,18,705.00
2022,04,30,12,19,713.70
2022,04,30,12,20,717.80
2022,04,30,12,21,691.70
2022,04,30,12,22,705.90
2022,04,30,12,23,703.00
2022,04,30,12,24,703.00
2022,04,30,12,25,604.70
2022,04,30,12,26,172.00
2022,04,30,12,27,429.10
2022,04,30,12,28,729.00
2022,04,30,12,29,729.00
2022,04,30,12,30,709.00
2022,04,30,12,31,188.00
2022,04,30,12,32,188.00
2022,04,30,12,33,471.60
2022,04,30,12,34,777.00
2022,04,30,12,35,777.00
2022,04,30,12,36,665.90
2022,04,30,12,37,657.00
2022,04,30,12,38,657.00
2022,04,30,12,39,659.00
2022,04,30,12,40,708.90
2022,04,30,12,41,726.90
2022,04,30,12,42,722.00
2022,04,30,12,43,721.80
2022,04,30,12,44,728.50
2022,04,30,12,45,736.00
2022,04,30,12,46,755.70
2022,04,30,12,47,766.00
2022,04,30,12,48,288.80
2022,04,30,12,49,243.00
2022,04,30,12,50,243.00
2022,04,30,12,51,291.30
2022,04,30,12,52,341.30
2022,04,30,12,53,328.20
2022,04,30,12,54,384.00
2022,04,30,12,55,846.90
2022,04,30,12,56,809.90
2022,04,30,12,57,790.40
2022,04,30,12,58,786.00
2022,04,30,12,59,786.00
2022,04,30,13,00,225.00
2022,04,30,13,01,225.00
2022,04,30,13,02,228.10
2022,04,30,13,03,244.40
2022,04,30,13,04,278.20
2022,04,30,13,05,305.90
2022,04,30,13,06,288.00
2022,04,30,13,07,279.00
2022,04,30,13,08,279.00
2022,04,30,13,09,279.00
2022,04,30,13,10,682.10
2022,04,30,13,11,789.10
2022,04,30,13,12,767.70
2022,04,30,13,13,749.00
2022,04,30,13,14,463.00
2022,04,30,13,15,137.40
2022,04,30,13,16,118.40
2022,04,30,13,17,118.00
2022,04,30,13,18,124.90
2022,04,30,13,19,146.60
2022,04,30,13,20,154.00
2022,04,30,13,21,163.70
2022,04,30,13,22,179.90
2022,04,30,13,23,207.10
2022,04,30,13,24,221.20
2022,04,30,13,25,264.00
2022,04,30,13,26,264.00
2022,04,30,13,27,264.00
2022,04,30,13,28,264.00
2022,04,30,13,29,206.90
2022,04,30,13,30,240.00
2022,04,30,13,31,236.60
2022,04,30,13,32,236.00
2022,04,30,13,33,236.00
2022,04,30,13,34,177.20
2022,04,30,13,35,193.00
2022,04,30,13,36,197.70
2022,04,30,13,37,197.30
2022,04,30,13,38,166.60
2022,04,30,13,39,145.40
2022,04,30,13,40,135.90
2022,04,30,13,41,151.70
2022,04,30,13,42,153.60
2022,04,30,13,43,151.00
2022,04,30,13,44,162.10
2022,04,30,13,45,172.20
2022,04,30,13,46,169.30
2022,04,30,13,47,162.90
2022,04,30,13,48,170.30
2022,04,30,13,49,182.40
2022,04,30,13,50,190.40
2022,04,30,13,51,183.90
2022,04,30,13,52,163.70
2022,04,30,13,53,151.00
2022,04,30,13,54,151.70
2022,04,30,13,55,157.20
2022,04,30,13,56,172.10
2022,04,30,13,57,206.00
2022,04,30,13,58,218.90
2022,04,30,13,59,250.00
2022,04,30,14,00,250.00
2022,04,30,14,01,563.20
2022,04,30,14,02,854.00
2022,04,30,14,03,346.90
2022,04,30,14,04,189.30
2022,04,30,14,05,168.10
2022,04,30,14,06,167.60
2022,04,30,14,07,177.50
2022,04,30,14,08,183.00
2022,04,30,14,09,729.70
2022,04,30,14,10,878.10
2022,04,30,14,11,879.00
2022,04,30,14,12,618.50
2022,04,30,14,13,224.90
2022,04,30,14,14,250.30
2022,04,30,14,15,283.60
2022,04,30,14,16,288.60
2022,04,30,14,17,292.00
2022,04,30,14,18,292.00
2022,04,30,14,19,292.00
2022,04,30,14,20,292.00
2022,04,30,14,21,208.20
2022,04,30,14,22,192.00
2022,04,30,14,23,192.00
2022,04,30,14,24,188.90
2022,04,30,14,25,186.80
2022,04,30,14,26,198.40
2022,04,30,14,27,239.30
2022,04,30,14,28,244.00
2022,04,30,14,29,244.00
2022,04,30,14,30,240.10
2022,04,30,14,31,226.60
2022,04,30,14,32,211.80
2022,04,30,14,33,202.60
2022,04,30,14,34,200.40
2022,04,30,14,35,203.30
2022,04,30,14,36,208.40
2022,04,30,14,37,212.90
2022,04,30,14,38,217.10
2022,04,30,14,39,220.80
2022,04,30,14,40,221.50
2022,04,30,14,41,212.70
2022,04,30,14,42,202.90
2022,04,30,14,43,194.60
2022,04,30,14,44,190.40
2022,04,30,14,45,193.40
2022,04,30,14,46,206.40
2022,04,30,14,47,249.70
2022,04,30,14,48,286.00
2022,04,30,14,49,287.00
2022,04,30,14,50,287.00
2022,04,30,14,51,251.70
2022,04,30,14,52,274.00
2022,04,30,14,53,334.00
2022,04,30,14,54,334.00
2022,04,30,14,55,331.20
2022,04,30,14,56,337.30
2022,04,30,14,57,339.00
2022,04,30,14,58,339.00
2022,04,30,14,59,577.70
2022,04,30,15,00,921.70
2022,04,30,15,01,919.00
2022,04,30,15,02,338.00
2022,04,30,15,03,220.30
2022,04,30,15,04,214.00
2022,04,30,15,05,204.60
2022,04,30,15,06,190.70
2022,04,30,15,07,174.60
2022,04,30,15,08,163.90
2022,04,30,15,09,161.40
2022,04,30,15,10,157.10
2022,04,30,15,11,153.20
2022,04,30,15,12,151.00
2022,04,30,15,13,154.90
2022,04,30,15,14,170.00
2022,04,30,15,15,190.60
2022,04,30,15,16,202.00
2022,04,30,15,17,221.70
2022,04,30,15,18,260.60
2022,04,30,15,19,343.30
2022,04,30,15,20,331.60
2022,04,30,15,21,299.40
2022,04,30,15,22,289.90
2022,04,30,15,23,280.40
2022,04,30,15,24,282.70
2022,04,30,15,25,303.60
2022,04,30,15,26,290.50
2022,04,30,15,27,276.30
2022,04,30,15,28,260.30
2022,04,30,15,29,242.70
2022,04,30,15,30,227.30
2022,04,30,15,31,214.90
2022,04,30,15,32,207.10
2022,04,30,15,33,206.20
2022,04,30,15,34,208.60
2022,04,30,15,35,212.70
2022,04,30,15,36,215.40
2022,04,30,15,37,213.40
2022,04,30,15,38,214.60
2022,04,30,15,39,220.30
2022,04,30,15,40,221.80
2022,04,30,15,41,225.20
2022,04,30,15,42,212.90
2022,04,30,15,43,206.10
2022,04,30,15,44,202.60
2022,04,30,15,45,206.80
2022,04,30,15,46,207.70
2022,04,30,15,47,206.00
2022,04,30,15,48,211.00
2022,04,30,15,49,222.50
2022,04,30,15,50,241.00
2022,04,30,15,51,255.90
2022,04,30,15,52,260.80
2022,04,30,15,53,253.00
2022,04,30,15,54,236.00
2022,04,30,15,55,210.80
2022,04,30,15,56,193.20
2022,04,30,15,57,183.70
2022,04,30,15,58,182.90
2022,04,30,15,59,186.90
2022,04,30,16,00,191.90
2022,04,30,16,01,198.60
2022,04,30,16,02,201.30
2022,04,30,16,03,207.70
2022,04,30,16,04,215.30
2022,04,30,16,05,230.70
2022,04,30,16,06,251.00
2022,04,30,16,07,289.30
2022,04,30,16,08,292.00
2022,04,30,16,09,318.30
2022,04,30,16,10,359.00
2022,04,30,16,11,359.00
2022,04,30,16,12,359.00
2022,04,30,16,13,235.00
2022,04,30,16,14,233.00
2022,04,30,16,15,238.90
2022,04,30,16,16,250.80
2022,04,30,16,17,267.60
2022,04,30,16,18,286.70
2022,04,30,16,19,349.70
2022,04,30,16,20,378.70
2022,04,30,16,21,455.00
2022,04,30,16,22,455.00
2022,04,30,16,23,455.00
2022,04,30,16,24,455.00
2022,04,30,16,25,744.90
2022,04,30,16,26,721.60
2022,04,30,16,27,749.00
2022,04,30,16,28,749.00
2022,04,30,16,29,703.10
2022,04,30,16,30,766.20
2022,04,30,16,31,703.00
2022,04,30,16,32,260.00
2022,04,30,16,33,260.00
2022,04,30,16,34,267.10
2022,04,30,16,35,260.90
2022,04,30,16,36,257.60
2022,04,30,16,37,320.00
2022,04,30,16,38,320.00
2022,04,30,16,39,307.50
2022,04,30,16,40,285.80
2022,04,30,16,41,267.80
2022,04,30,16,42,266.80
2022,04,30,16,43,265.00
2022,04,30,16,44,258.70
2022,04,30,16,45,252.00
2022,04,30,16,46,243.40
2022,04,30,16,47,243.80
2022,04,30,16,48,239.20
2022,04,30,16,49,235.90
2022,04,30,16,50,234.00
2022,04,30,16,51,239.10
2022,04,30,16,52,238.20
2022,04,30,16,53,236.20
2022,04,30,16,54,236.10
2022,04,30,16,55,238.60
2022,04,30,16,56,245.90
2022,04,30,16,57,253.90
2022,04,30,16,58,260.50
2022,04,30,16,59,260.30
2022,04,30,17,00,257.90
2022,04,30,17,01,256.50
2022,04,30,17,02,254.20
2022,04,30,17,03,247.40
2022,04,30,17,04,236.70
2022,04,30,17,05,224.60
2022,04,30,17,06,212.80
2022,04,30,17,07,205.40
2022,04,30,17,08,204.00
2022,04,30,17,09,205.80
2022,04,30,17,10,211.20
2022,04,30,17,11,219.20
2022,04,30,17,12,220.00